QPF
0.01 0.01 0.01 0.01 0.01 0.01 0.01 0.01 0.03 0.03 0.02 0.02 0.02 0.01 0.01 0.01 0.01 0.05 0.09 0.08 0.06 0.06 0.06 0.06 0.05 0.04 0.03 0.03 0.02 0.01 0.01 0.01 0.01 0.02 0.03 0.04 0.05 0.05 0.04 0.03 0.03 0.03 0.02 0.02
0.02 0.01 0.01 0.01 0.01 0.02 0.02 0.02 0.02 0.03 0.02 0.01 0.01 0.01 0.01 0.01 0.01 0.02 0.05 0.06 0.06 0.06 0.08 0.09 0.07 0.06 0.04 0.03 0.03 0.02 0.01 0.01 0.01 0.02 0.03 0.03 0.04 0.05 0.04 0.03 0.03 0.02 0.02 0.02
0.02 0.01 0.01 0.01 0.01 0.02 0.04 0.03 0.02 0.03 0.02 0.02 0.01 0.01 0.01 0.01 0.01 0.01 0.03 0.05 0.06 0.08 0.08 0.08 0.08 0.06 0.03 0.02 0.02 0.03 0.03 0.03 0.02 0.02 0.03 0.04 0.05 0.05 0.05 0.03 0.03 0.02 0.02 0.03
0.01 0.02 0.02 0.01 0.02 0.02 0.03 0.02 0.02 0.02 0.01 0.01 0.01 0.01 0.02 0.01 0.01 0.01 0.01 0.03 0.05 0.05 0.05 0.05 0.05 0.04 0.02 0.02 0.02 0.02 0.03 0.06 0.04 0.03 0.04 0.04 0.05 0.06 0.04 0.03 0.03 0.02 0.02 0.02
0.02 0.03 0.03 0.02 0.02 0.02 0.02 0.02 0.01 0.02 0.01 0.01 0.01 0.02 0.02 0.01 0.01 0.01 0.02 0.02 0.03 0.03 0.03 0.04 0.03 0.01 0.01 0.01 0.02 0.02 0.02 0.04 0.08 0.07 0.05 0.04 0.05 0.04 0.04 0.04 0.04 0.03 0.02 0.02
0.04 0.04 0.04 0.03 0.02 0.02 0.02 0.02 0.01 0.03 0.04 0.02 0.02 0.02 0.02 0.01 0.01 0.01 0.02 0.03 0.04 0.04 0.04 0.04 0.02 0.01 0.01 0.01 0.01 0.02 0.03 0.03 0.04 0.06 0.06 0.05 0.05 0.04 0.03 0.05 0.04 0.04 0.03 0.03
0.04 0.04 0.03 0.03 0.03 0.02 0.03 0.02 0.02 0.02 0.04 0.03 0.02 0.02 0.01 0.01 0.01 0.01 0.02 0.03 0.03 0.03 0.02 0.02 0.01 0.01 0.01 0.01 0.02 0.02 0.03 0.04 0.04 0.03 0.04 0.06 0.05 0.04 0.04 0.04 0.04 0.04 0.03 0.03
0.05 0.05 0.05 0.03 0.03 0.02 0.03 0.04 0.06 0.06 0.04 0.01 0.01 0.01 0.01 0.01 0.01 0.01 0.02 0.02 0.03 0.04 0.02 0.01 0.01 0.01 0.01 0.02 0.02 0.03 0.03 0.03 0.04 0.04 0.04 0.05 0.06 0.05 0.05 0.04 0.04 0.03 0.03 0.03
0.04 0.04 0.04 0.04 0.03 0.04 0.05 0.05 0.05 0.05 0.03 0.01 0.01 0.01 0.01 0.01 0.01 0.01 0.02 0.02 0.02 0.03 0.02 0.02 0.01 0.01 0.01 0.01 0.02 0.03 0.03 0.03 0.03 0.04 0.05 0.05 0.05 0.05 0.05 0.05 0.04 0.03 0.03 0.03
0.03 0.02 0.01 0.01 0.02 0.04 0.05 0.04 0.04 0.04 0.02 0.02 0.01 0.01 0.02 0.02 0.01 0.01 0.02 0.02 0.03 0.02 0.03 0.02 0.02 0.02 0.02 0.02 0.02 0.02 0.02 0.02 0.02 0.03 0.04 0.04 0.05 0.05 0.05 0.06 0.06 0.05 0.05 0.04
0.02 0.02 0.02 0.02 0.02 0.02 0.02 0.02 0.03 0.03 0.03 0.02 0.01 0.02 0.03 0.02 0.02 0.02 0.02 0.03 0.04 0.03 0.02 0.02 0.02 0.02 0.02 0.02 0.02 0.02 0.02 0.02 0.03 0.03 0.04 0.05 0.05 0.05 0.05 0.05 0.06 0.07 0.07 0.06
0.01 0.01 0.02 0.03 0.03 0.02 0.02 0.02 0.02 0.02 0.02 0.02 0.01 0.02 0.02 0.03 0.04 0.03 0.02 0.02 0.03 0.04 0.03 0.02 0.02 0.02 0.02 0.02 0.02 0.02 0.02 0.03 0.04 0.04 0.04 0.05 0.05 0.05 0.05 0.06 0.07 0.08 0.08 0.08
0.01 0.01 0.01 0.04 0.04 0.02 0.02 0.02 0.04 0.03 0.03 0.02 0.02 0.01 0.02 0.03 0.04 0.03 0.02 0.02 0.02 0.04 0.03 0.02 0.01 0.01 0.01 0.02 0.03 0.04 0.04 0.04 0.05 0.05 0.05 0.04 0.04 0.04 0.04 0.05 0.08 0.09 0.10 0.11
0.01 0.01 0.01 0.02 0.03 0.02 0.02 0.02 0.03 0.04 0.02 0.02 0.02 0.02 0.02 0.03 0.03 0.03 0.02 0.02 0.02 0.03 0.02 0.02 0.01 0.01 0.01 0.02 0.02 0.03 0.04 0.04 0.05 0.05 0.05 0.05 0.05 0.05 0.05 0.06 0.07 0.08 0.10 0.11
0.00 0.00 0.01 0.02 0.03 0.03 0.03 0.02 0.03 0.04 0.02 0.01 0.02 0.02 0.02 0.02 0.03 0.02 0.03 0.03 0.02 0.01 0.02 0.02 0.02 0.01 0.02 0.02 0.02 0.02 0.03 0.03 0.04 0.04 0.04 0.04 0.04 0.03 0.04 0.04 0.06 0.08 0.08 0.09
0.01 0.01 0.02 0.04 0.05 0.04 0.05 0.03 0.02 0.03 0.02 0.01 0.01 0.02 0.02 0.02 0.02 0.03 0.03 0.03 0.03 0.02 0.02 0.03 0.03 0.02 0.03 0.03 0.03 0.02 0.02 0.03 0.03 0.03 0.02 0.02 0.02 0.02 0.02 0.04 0.05 0.06 0.07 0.07
0.02 0.02 0.04 0.06 0.06 0.04 0.04 0.03 0.02 0.01 0.02 0.01 0.01 0.01 0.02 0.02 0.02 0.04 0.04 0.03 0.04 0.03 0.02 0.02 0.03 0.03 0.03 0.03 0.03 0.02 0.02 0.02 0.02 0.02 0.01 0.02 0.02 0.02 0.02 0.03 0.04 0.05 0.07 0.08
0.02 0.02 0.03 0.04 0.04 0.03 0.02 0.01 0.01 0.01 0.02 0.01 0.01 0.01 0.02 0.02 0.02 0.03 0.03 0.03 0.02 0.03 0.02 0.02 0.02 0.02 0.03 0.03 0.04 0.04 0.03 0.02 0.02 0.02 0.01 0.01 0.01 0.01 0.01 0.02 0.02 0.02 0.02 0.04
0.05 0.04 0.03 0.02 0.03 0.02 0.01 0.01 0.01 0.01 0.02 0.02 0.01 0.02 0.02 0.03 0.03 0.03 0.03 0.02 0.02 0.01 0.01 0.02 0.02 0.01 0.02 0.03 0.04 0.04 0.03 0.02 0.02 0.02 0.02 0.02 0.02 0.01 0.01 0.02 0.01 0.01 0.01 0.01
0.02 0.01 0.01 0.01 0.01 0.01 0.02 0.01 0.01 0.00 0.01 0.01 0.02 0.02 0.02 0.01 0.02 0.02 0.02 0.02 0.01 0.01 0.01 0.01 0.01 0.01 0.01 0.02 0.03 0.02 0.02 0.02 0.02 0.02 0.02 0.02 0.02 0.01 0.01 0.01 0.00 0.00 0.00 0.01
0.01 0.01 0.01 0.01 0.01 0.01 0.01 0.01 0.01 0.01 0.00 0.01 0.02 0.02 0.02 0.02 0.02 0.02 0.02 0.02 0.01 0.01 0.00 0.01 0.01 0.01 0.02 0.02 0.03 0.02 0.03 0.03 0.03 0.03 0.02 0.02 0.02 0.01 0.01 0.00 0.00 0.00 0.00 0.01
0.01 0.01 0.01 0.01 0.02 0.02 0.01 0.00 0.00 0.00 0.00 0.01 0.02 0.03 0.03 0.03 0.03 0.03 0.02 0.02 0.01 0.01 0.01 0.01 0.01 0.01 0.02 0.02 0.02 0.02 0.03 0.03 0.03 0.03 0.04 0.04 0.04 0.03 0.02 0.02 0.01 0.01 0.01 0.01
0.02 0.01 0.01 0.01 0.02 0.02 0.02 0.01 0.02 0.01 0.01 0.02 0.02 0.03 0.03 0.02 0.02 0.02 0.01 0.01 0.01 0.01 0.01 0.01 0.01 0.01 0.01 0.02 0.02 0.03 0.03 0.03 0.03 0.03 0.03 0.04 0.03 0.03 0.02 0.02 0.03 0.03 0.03 0.03
0.02 0.02 0.02 0.01 0.02 0.03 0.02 0.03 0.03 0.02 0.01 0.01 0.02 0.02 0.02 0.01 0.01 0.01 0.01 0.01 0.01 0.01 0.01 0.01 0.01 0.01 0.01 0.01 0.01 0.02 0.03 0.03 0.03 0.03 0.03 0.03 0.02 0.01 0.01 0.00 0.00 0.01 0.01 0.02
0.02 0.02 0.02 0.02 0.02 0.03 0.03 0.02 0.03 0.02 0.02 0.02 0.02 0.02 0.01 0.01 0.01 0.01 0.01 0.01 0.03 0.02 0.02 0.02 0.02 0.01 0.01 0.01 0.01 0.02 0.02 0.03 0.02 0.03 0.03 0.03 0.02 0.01 0.00 0.00 0.00 0.00 0.01 0.01
0.02 0.02 0.02 0.02 0.03 0.03 0.03 0.03 0.04 0.04 0.03 0.02 0.03 0.03 0.02 0.01 0.01 0.01 0.01 0.01 0.02 0.03 0.02 0.02 0.03 0.03 0.02 0.01 0.01 0.01 0.01 0.02 0.02 0.02 0.02 0.01 0.01 0.01 0.00 0.00 0.01 0.01 0.01 0.03
0.02 0.03 0.03 0.04 0.04 0.05 0.04 0.05 0.05 0.05 0.04 0.04 0.05 0.05 0.04 0.02 0.02 0.01 0.01 0.01 0.01 0.02 0.02 0.01 0.01 0.02 0.02 0.02 0.01 0.01 0.01 0.02 0.02 0.02 0.02 0.01 0.01 0.01 0.01 0.01 0.01 0.01 0.02 0.03
MSLP
1015.20 1015.15 1015.03 1014.84 1014.60 1014.34 1014.06 1013.76 1013.43 1013.08 1012.70 1012.29 1011.86 1011.41 1010.97 1010.54 1010.14 1009.78 1009.46 1009.17 1008.91 1008.66 1008.43 1008.22 1008.02 1007.87 1007.77 1007.74 1007.81 1007.98 1008.27 1008.67 1009.17 1009.75 1010.39 1011.07 1011.76 1012.44 1013.08 1013.67 1014.20 1014.66 1015.04 1015.34
1015.56 1015.55 1015.42 1015.20 1014.92 1014.60 1014.26 1013.93 1013.61 1013.31 1013.03 1012.76 1012.48 1012.20 1011.90 1011.58 1011.23 1010.86 1010.47 1010.05 1009.63 1009.20 1008.78 1008.40 1008.06 1007.79 1007.60 1007.53 1007.57 1007.74 1008.03 1008.45 1008.97 1009.58 1010.26 1010.98 1011.71 1012.42 1013.09 1013.70 1014.23 1014.67 1015.01 1015.26
1015.80 1015.81 1015.70 1015.50 1015.21 1014.88 1014.55 1014.23 1013.95 1013.72 1013.54 1013.39 1013.25 1013.09 1012.89 1012.64 1012.31 1011.90 1011.42 1010.88 1010.30 1009.71 1009.14 1008.61 1008.15 1007.78 1007.54 1007.42 1007.44 1007.59 1007.87 1008.27 1008.78 1009.38 1010.05 1010.76 1011.48 1012.19 1012.86 1013.46 1013.98 1014.40 1014.72 1014.95
1015.94 1015.97 1015.88 1015.70 1015.44 1015.13 1014.83 1014.55 1014.32 1014.16 1014.05 1013.99 1013.93 1013.85 1013.71 1013.48 1013.14 1012.69 1012.14 1011.50 1010.81 1010.11 1009.43 1008.81 1008.28 1007.86 1007.57 1007.42 1007.41 1007.53 1007.78 1008.13 1008.58 1009.11 1009.71 1010.35 1011.02 1011.68 1012.31 1012.90 1013.41 1013.83 1014.15 1014.38
1016.01 1016.03 1015.95 1015.78 1015.55 1015.27 1015.00 1014.75 1014.56 1014.44 1014.37 1014.34 1014.32 1014.27 1014.14 1013.91 1013.56 1013.08 1012.49 1011.80 1011.06 1010.31 1009.60 1008.95 1008.41 1007.98 1007.68 1007.52 1007.48 1007.55 1007.72 1007.98 1008.32 1008.73 1009.21 1009.74 1010.30 1010.89 1011.47 1012.02 1012.53 1012.96 1013.32 1013.59
1016.00 1015.99 1015.90 1015.73 1015.51 1015.25 1014.99 1014.76 1014.57 1014.44 1014.37 1014.33 1014.30 1014.22 1014.08 1013.84 1013.47 1012.99 1012.39 1011.72 1011.00 1010.28 1009.60 1008.99 1008.49 1008.10 1007.82 1007.65 1007.58 1007.58 1007.66 1007.79 1007.99 1008.24 1008.56 1008.94 1009.38 1009.86 1010.37 1010.90 1011.41 1011.88 1012.29 1012.64
1015.92 1015.85 1015.72 1015.54 1015.31 1015.04 1014.77 1014.52 1014.30 1014.13 1014.01 1013.92 1013.83 1013.71 1013.53 1013.26 1012.90 1012.44 1011.88 1011.27 1010.63 1010.00 1009.42 1008.92 1008.50 1008.17 1007.93 1007.77 1007.66 1007.59 1007.55 1007.55 1007.58 1007.66 1007.80 1008.02 1008.32 1008.70 1009.14 1009.64 1010.16 1010.69 1011.18 1011.64
1015.74 1015.60 1015.43 1015.21 1014.95 1014.66 1014.35 1014.06 1013.78 1013.54 1013.33 1013.15 1012.99 1012.80 1012.58 1012.30 1011.95 1011.54 1011.06 1010.55 1010.04 1009.55 1009.11 1008.73 1008.41 1008.17 1007.97 1007.81 1007.67 1007.52 1007.38 1007.23 1007.11 1007.02 1007.00 1007.06 1007.24 1007.52 1007.90 1008.38 1008.92 1009.50 1010.08 1010.64
1015.46 1015.26 1015.03 1014.78 1014.48 1014.15 1013.79 1013.43 1013.08 1012.75 1012.45 1012.17 1011.92 1011.67 1011.41 1011.12 1010.81 1010.46 1010.09 1009.71 1009.34 1009.00 1008.70 1008.46 1008.25 1008.08 1007.93 1007.77 1007.59 1007.38 1007.13 1006.87 1006.61 1006.38 1006.22 1006.16 1006.23 1006.43 1006.77 1007.23 1007.79 1008.41 1009.07 1009.72
1015.09 1014.84 1014.57 1014.28 1013.94 1013.57 1013.16 1012.73 1012.30 1011.88 1011.48 1011.12 1010.79 1010.49 1010.20 1009.93 1009.66 1009.39 1009.13 1008.88 1008.66 1008.46 1008.30 1008.17 1008.05 1007.94 1007.81 1007.64 1007.43 1007.15 1006.83 1006.48 1006.12 1005.79 1005.54 1005.40 1005.39 1005.54 1005.84 1006.28 1006.84 1007.48 1008.16 1008.86
1014.64 1014.36 1014.07 1013.75 1013.39 1012.98 1012.52 1012.03 1011.54 1011.04 1010.57 1010.15 1009.76 1009.43 1009.14 1008.90 1008.69 1008.50 1008.35 1008.22 1008.12 1008.04 1007.97 1007.92 1007.86 1007.77 1007.64 1007.46 1007.20 1006.88 1006.51 1006.10 1005.69 1005.31 1005.01 1004.83 1004.78 1004.89 1005.16 1005.56 1006.09 1006.71 1007.38 1008.06
1014.15 1013.87 1013.57 1013.24 1012.86 1012.42 1011.93 1011.41 1010.86 1010.32 1009.81 1009.35 1008.95 1008.62 1008.36 1008.16 1008.02 1007.92 1007.86 1007.82 1007.81 1007.81 1007.80 1007.78 1007.73 1007.63 1007.49 1007.27 1006.98 1006.63 1006.22 1005.79 1005.37 1004.99 1004.68 1004.49 1004.42 1004.50 1004.73 1005.08 1005.54 1006.09 1006.68 1007.28
1013.65 1013.39 1013.10 1012.78 1012.39 1011.94 1011.44 1010.89 1010.33 1009.78 1009.26 1008.80 1008.42 1008.13 1007.91 1007.78 1007.71 1007.69 1007.71 1007.75 1007.79 1007.82 1007.82 1007.79 1007.72 1007.59 1007.40 1007.14 1006.81 1006.44 1006.03 1005.61 1005.20 1004.84 1004.56 1004.38 1004.31 1004.36 1004.53 1004.81 1005.17 1005.59 1006.05 1006.52
1013.20 1012.97 1012.70 1012.39 1012.01 1011.57 1011.06 1010.52 1009.97 1009.44 1008.95 1008.53 1008.20 1007.97 1007.83 1007.77 1007.78 1007.83 1007.91 1007.99 1008.06 1008.09 1008.08 1008.01 1007.88 1007.69 1007.44 1007.13 1006.78 1006.39 1005.99 1005.59 1005.23 1004.91 1004.66 1004.50 1004.42 1004.44 1004.55 1004.72 1004.96 1005.22 1005.51 1005.81
1012.81 1012.63 1012.40 1012.11 1011.75 1011.32 1010.84 1010.33 1009.81 1009.32 1008.89 1008.54 1008.29 1008.14 1008.08 1008.11 1008.20 1008.32 1008.44 1008.55 1008.61 1008.62 1008.56 1008.44 1008.24 1007.98 1007.67 1007.31 1006.93 1006.53 1006.15 1005.78 1005.46 1005.19 1004.97 1004.83 1004.75 1004.73 1004.76 1004.82 1004.91 1005.01 1005.11 1005.21
1012.53 1012.39 1012.21 1011.95 1011.63 1011.23 1010.79 1010.33 1009.87 1009.45 1009.09 1008.83 1008.67 1008.62 1008.66 1008.77 1008.92 1009.09 1009.25 1009.36 1009.41 1009.38 1009.27 1009.07 1008.81 1008.47 1008.10 1007.70 1007.29 1006.89 1006.52 1006.19 1005.91 1005.68 1005.50 1005.37 1005.27 1005.21 1005.16 1005.11 1005.06 1005.00 1004.92 1004.84
1012.33 1012.26 1012.13 1011.93 1011.65 1011.31 1010.93 1010.53 1010.15 1009.82 1009.56 1009.40 1009.34 1009.38 1009.51 1009.69 1009.90 1010.11 1010.28 1010.39 1010.41 1010.33 1010.16 1009.90 1009.56 1009.17 1008.74 1008.30 1007.87 1007.48 1007.12 1006.82 1006.57 1006.37 1006.21 1006.08 1005.98 1005.87 1005.75 1005.61 1005.44 1005.24 1005.03 1004.80
1012.19 1012.20 1012.15 1012.01 1011.81 1011.54 1011.24 1010.93 1010.65 1010.42 1010.27 1010.21 1010.25 1010.38 1010.58 1010.82 1011.07 1011.30 1011.46 1011.55 1011.53 1011.41 1011.18 1010.85 1010.46 1010.02 1009.55 1009.09 1008.65 1008.26 1007.92 1007.63 1007.41 1007.23 1007.08 1006.96 1006.83 1006.69 1006.53 1006.32 1006.07 1005.79 1005.48 1005.15
1012.08 1012.18 1012.22 1012.17 1012.06 1011.89 1011.69 1011.49 1011.32 1011.21 1011.17 1011.21 1011.34 1011.55 1011.80 1012.08 1012.35 1012.57 1012.72 1012.77 1012.71 1012.53 1012.25 1011.88 1011.45 1010.97 1010.48 1010.01 1009.57 1009.19 1008.86 1008.59 1008.38 1008.22 1008.08 1007.96 1007.82 1007.67 1007.47 1007.24 1006.96 1006.64 1006.29 1005.93
1011.94 1012.15 1012.28 1012.35 1012.35 1012.30 1012.22 1012.14 1012.10 1012.10 1012.17 1012.31 1012.52 1012.78 1013.07 1013.37 1013.63 1013.83 1013.95 1013.96 1013.85 1013.63 1013.31 1012.91 1012.45 1011.97 1011.47 1011.00 1010.57 1010.20 1009.89 1009.64 1009.44 1009.28 1009.15 1009.02 1008.89 1008.73 1008.54 1008.31 1008.04 1007.73 1007.39 1007.04
1011.75 1012.06 1012.30 1012.48 1012.60 1012.67 1012.73 1012.79 1012.87 1012.99 1013.16 1013.39 1013.67 1013.98 1014.29 1014.58 1014.83 1015.00 1015.07 1015.04 1014.89 1014.64 1014.30 1013.88 1013.42 1012.94 1012.46 1012.00 1011.59 1011.24 1010.94 1010.70 1010.51 1010.36 1010.23 1010.11 1009.99 1009.84 1009.67 1009.47 1009.24 1008.97 1008.69 1008.39
1011.49 1011.89 1012.23 1012.52 1012.75 1012.95 1013.14 1013.33 1013.53 1013.77 1014.04 1014.35 1014.69 1015.02 1015.35 1015.63 1015.85 1015.99 1016.03 1015.96 1015.78 1015.51 1015.16 1014.75 1014.30 1013.84 1013.39 1012.97 1012.59 1012.26 1011.99 1011.76 1011.57 1011.42 1011.30 1011.18 1011.07 1010.94 1010.80 1010.64 1010.46 1010.26 1010.04 1009.80
1011.18 1011.64 1012.06 1012.43 1012.77 1013.08 1013.39 1013.69 1014.01 1014.36 1014.72 1015.10 1015.48 1015.85 1016.18 1016.46 1016.66 1016.77 1016.78 1016.69 1016.50 1016.23 1015.89 1015.50 1015.09 1014.67 1014.27 1013.89 1013.55 1013.25 1012.99 1012.77 1012.59 1012.44 1012.31 1012.19 1012.08 1011.97 1011.86 1011.74 1011.61 1011.47 1011.31 1011.15
1010.84 1011.33 1011.80 1012.23 1012.65 1013.05 1013.45 1013.85 1014.27 1014.71 1015.15 1015.59 1016.02 1016.41 1016.76 1017.03 1017.23 1017.33 1017.33 1017.24 1017.06 1016.81 1016.50 1016.16 1015.80 1015.43 1015.08 1014.75 1014.45 1014.19 1013.95 1013.74 1013.56 1013.40 1013.26 1013.13 1013.02 1012.91 1012.82 1012.72 1012.63 1012.53 1012.43 1012.31
1010.52 1011.01 1011.48 1011.94 1012.41 1012.87 1013.34 1013.82 1014.32 1014.83 1015.34 1015.84 1016.31 1016.73 1017.10 1017.39 1017.59 1017.70 1017.72 1017.65 1017.50 1017.29 1017.04 1016.75 1016.45 1016.15 1015.86 1015.59 1015.33 1015.09 1014.87 1014.66 1014.47 1014.30 1014.14 1013.99 1013.86 1013.75 1013.65 1013.56 1013.48 1013.41 1013.32 1013.22
1010.23 1010.69 1011.14 1011.61 1012.09 1012.58 1013.10 1013.64 1014.20 1014.76 1015.33 1015.88 1016.40 1016.86 1017.26 1017.58 1017.81 1017.95 1018.00 1017.97 1017.87 1017.72 1017.53 1017.32 1017.09 1016.85 1016.62 1016.40 1016.18 1015.97 1015.76 1015.55 1015.35 1015.15 1014.96 1014.78 1014.62 1014.48 1014.36 1014.26 1014.17 1014.09 1014.00 1013.90
1009.98 1010.39 1010.82 1011.27 1011.75 1012.26 1012.80 1013.38 1013.98 1014.60 1015.21 1015.81 1016.37 1016.88 1017.31 1017.67 1017.94 1018.13 1018.23 1018.26 1018.22 1018.14 1018.02 1017.87 1017.71 1017.55 1017.37 1017.19 1017.01 1016.81 1016.61 1016.40 1016.17 1015.95 1015.72 1015.51 1015.31 1015.13 1014.98 1014.84 1014.73 1014.62 1014.51 1014.38
Thickness
5704 5712 5712 5710 5710 5709 5701 5692 5682 5685 5686 5691 5696 5699 5699 5697 5695 5693 5691 5688 5686 5684 5682 5680 5678 5676 5676 5675 5675 5674 5673 5671 5671 5672 5673 5674 5675 5676 5677 5677 5679 5679 5679 5678
5697 5707 5706 5701 5705 5705 5701 5698 5692 5688 5685 5696 5695 5694 5691 5690 5688 5685 5683 5681 5680 5678 5676 5674 5672 5671 5669 5668 5667 5667 5666 5665 5666 5667 5668 5669 5669 5670 5671 5672 5673 5673 5673 5673
5675 5691 5692 5679 5692 5694 5692 5694 5690 5679 5682 5688 5684 5685 5684 5683 5683 5680 5678 5677 5675 5673 5671 5669 5667 5666 5664 5663 5662 5661 5660 5660 5661 5661 5662 5663 5665 5664 5665 5666 5668 5668 5668 5668
5665 5671 5658 5675 5696 5696 5688 5686 5688 5684 5683 5683 5680 5680 5680 5680 5677 5675 5673 5671 5670 5669 5667 5665 5663 5662 5660 5659 5657 5655 5654 5655 5655 5656 5657 5658 5658 5659 5660 5662 5663 5663 5663 5664
5652 5650 5656 5675 5686 5685 5677 5671 5680 5678 5676 5675 5674 5671 5669 5673 5673 5671 5670 5668 5666 5665 5663 5660 5658 5657 5654 5653 5652 5651 5651 5651 5651 5652 5652 5653 5653 5654 5656 5657 5658 5658 5659 5659
5648 5644 5642 5661 5682 5687 5676 5657 5673 5672 5668 5667 5665 5651 5655 5667 5666 5665 5664 5661 5659 5658 5656 5653 5651 5650 5649 5647 5646 5645 5646 5646 5647 5648 5648 5648 5649 5650 5652 5653 5654 5654 5655 5655
5642 5638 5646 5666 5678 5678 5651 5649 5665 5666 5664 5662 5656 5653 5657 5660 5658 5658 5657 5655 5653 5651 5649 5647 5646 5645 5642 5640 5639 5640 5641 5642 5642 5643 5643 5645 5646 5647 5648 5648 5649 5650 5650 5651
5633 5630 5636 5664 5667 5656 5651 5658 5660 5659 5659 5656 5654 5653 5652 5652 5651 5650 5648 5647 5646 5644 5642 5641 5640 5638 5635 5634 5634 5635 5635 5636 5636 5637 5639 5641 5641 5642 5643 5643 5643 5644 5644 5645
5636 5636 5649 5658 5658 5658 5657 5654 5655 5654 5653 5651 5648 5646 5645 5644 5643 5643 5642 5640 5639 5637 5636 5635 5634 5633 5630 5629 5629 5628 5628 5629 5630 5632 5634 5635 5635 5636 5636 5637 5638 5638 5639 5639
5636 5642 5648 5650 5652 5653 5654 5652 5652 5650 5648 5646 5642 5640 5639 5637 5635 5634 5634 5634 5632 5631 5629 5628 5629 5628 5627 5626 5624 5622 5622 5622 5624 5626 5627 5629 5630 5631 5631 5632 5633 5634 5634 5635
5629 5635 5638 5641 5643 5645 5647 5647 5646 5645 5643 5640 5637 5635 5633 5630 5629 5628 5627 5627 5626 5624 5623 5623 5623 5622 5622 5621 5618 5616 5616 5617 5618 5620 5621 5622 5623 5624 5626 5628 5630 5630 5631 5632
5619 5628 5627 5631 5638 5640 5638 5638 5638 5637 5635 5634 5632 5629 5627 5624 5622 5621 5620 5620 5619 5618 5618 5618 5618 5617 5617 5616 5614 5612 5611 5611 5612 5614 5615 5616 5616 5618 5621 5623 5625 5627 5628 5628
5626 5630 5628 5631 5633 5633 5632 5632 5632 5631 5628 5626 5625 5624 5621 5617 5616 5615 5614 5613 5613 5612 5613 5613 5613 5612 5613 5612 5610 5608 5607 5607 5607 5608 5609 5610 5611 5612 5613 5616 5619 5620 5621 5622
5626 5625 5622 5623 5624 5626 5626 5626 5626 5624 5622 5621 5618 5616 5613 5611 5610 5608 5607 5608 5608 5608 5607 5608 5607 5607 5608 5608 5607 5605 5604 5604 5604 5604 5604 5605 5606 5606 5608 5609 5610 5612 5614 5615
5618 5619 5616 5617 5618 5619 5619 5617 5615 5613 5613 5612 5611 5609 5608 5605 5603 5603 5603 5603 5603 5602 5601 5601 5601 5601 5603 5604 5603 5602 5601 5600 5601 5601 5601 5601 5602 5602 5603 5604 5604 5605 5606 5608
5611 5612 5611 5610 5610 5610 5609 5608 5605 5604 5605 5604 5603 5602 5602 5601 5599 5597 5597 5597 5596 5594 5595 5595 5595 5597 5598 5599 5598 5597 5597 5597 5597 5597 5597 5596 5596 5596 5597 5597 5598 5598 5599 5600
5602 5601 5601 5600 5601 5602 5602 5601 5599 5599 5599 5597 5597 5597 5596 5593 5591 5590 5589 5590 5590 5589 5589 5589 5589 5592 5593 5593 5593 5592 5592 5591 5592 5591 5591 5591 5591 5591 5591 5591 5592 5593 5594 5595
5601 5600 5598 5596 5595 5595 5596 5597 5596 5595 5593 5594 5594 5592 5589 5587 5584 5583 5583 5582 5582 5582 5583 5584 5585 5586 5587 5588 5587 5587 5586 5586 5585 5585 5585 5585 5585 5585 5585 5585 5586 5587 5587 5588
5595 5594 5593 5593 5592 5591 5591 5591 5590 5590 5590 5589 5587 5585 5584 5582 5581 5579 5578 5576 5575 5574 5576 5579 5580 5581 5581 5582 5582 5581 5580 5579 5579 5579 5579 5580 5580 5579 5579 5579 5579 5580 5580 5580
5591 5590 5589 5588 5588 5586 5585 5585 5585 5584 5583 5583 5581 5579 5577 5576 5575 5574 5572 5570 5570 5571 5573 5574 5574 5574 5575 5575 5575 5574 5574 5573 5572 5572 5572 5572 5572 5572 5572 5573 5573 5573 5573 5573
5585 5585 5584 5583 5582 5582 5581 5580 5579 5578 5577 5577 5575 5573 5572 5571 5570 5568 5566 5564 5566 5568 5568 5568 5568 5568 5568 5568 5568 5567 5566 5566 5565 5565 5564 5564 5565 5565 5565 5565 5566 5566 5566 5566
5579 5579 5579 5579 5578 5577 5576 5576 5575 5574 5573 5572 5571 5570 5568 5565 5564 5563 5562 5561 5562 5563 5563 5562 5562 5562 5562 5561 5560 5559 5558 5558 5557 5557 5557 5557 5557 5557 5558 5558 5558 5558 5558 5557
5573 5574 5574 5574 5573 5572 5572 5572 5571 5571 5569 5568 5567 5565 5563 5561 5559 5558 5556 5557 5558 5558 5557 5556 5556 5556 5555 5554 5552 5551 5550 5549 5549 5548 5549 5549 5549 5549 5550 5550 5550 5550 5550 5549
5569 5569 5569 5570 5569 5567 5566 5567 5567 5566 5565 5564 5563 5562 5560 5558 5556 5556 5556 5556 5555 5553 5551 5550 5550 5549 5547 5546 5544 5543 5542 5542 5542 5542 5542 5542 5542 5543 5543 5543 5543 5543 5542 5542
5565 5565 5565 5564 5563 5562 5562 5562 5561 5560 5560 5559 5559 5559 5558 5557 5555 5554 5553 5552 5550 5548 5546 5545 5544 5542 5540 5539 5538 5537 5536 5536 5536 5535 5535 5535 5535 5536 5536 5536 5536 5535 5535 5534
5560 5559 5559 5560 5559 5558 5558 5557 5556 5555 5555 5555 5555 5555 5555 5555 5553 5552 5550 5548 5546 5543 5541 5540 5538 5536 5535 5533 5532 5531 5531 5530 5529 5529 5529 5529 5529 5529 5529 5529 5529 5528 5528 5527
5556 5555 5555 5555 5556 5556 5555 5553 5552 5552 5552 5551 5550 5551 5551 5551 5549 5548 5546 5544 5542 5539 5537 5535 5533 5532 5530 5528 5527 5526 5525 5524 5524 5523 5523 5522 5522 5522 5522 5522 5522 5521 5520 5519